{"data":{"norad_id":59320,"intl_designator":"2024-057A","name":"STARLINK-31402","alt_names":[],"object_type":"PAYLOAD","status":"ACTIVE","operator":null,"country":"US","launch_date":"2024-03-25","launch_site_code":"AFETR","launch_vehicle":null,"mission":null,"orbit_class":"UNKNOWN","rcs_meters":null,"size_class":null,"mass_kg":null,"dimensions":null,"purposes":["comms"],"wikipedia_slug":null,"has_3d_model":false,"image_url":null,"decayed_at":null,"tle_current":{"epoch":"2026-05-25T01:58:21.334368Z","epoch_age_seconds":64580,"freshness":"FRESH","line1":"1 59320U 24057A   26145.08219137  .00012073  00000+0  44506-3 0  9990","line2":"2 59320  43.0004  68.0359 0001091 245.0116 115.0622 15.27762035122058","mean_motion":15.27762035,"eccentricity":0.0001091,"inclination_deg":43.0004,"raan_deg":68.0359,"arg_perigee_deg":245.0116,"mean_anomaly_deg":115.0622,"bstar":0.00044506,"rev_number":12205,"period_min":94.255516697664,"perigee_km":481.75557594505,"apogee_km":483.25256782694,"semimajor_km":6860.641071886,"source":"CELESTRAK","updated_at":"2026-05-25T13:38:18.902385Z"}}}